Colorado City, AZ

7:27 AM MST on February 24, 2017 (GMT -0700)
Colorado City Municipal

Weather History for KAZC - July, 2014

Change the Weather History Date:

Wednesday, July 2, 2014

  Actual Average (KSGU) Record (KSGU)
Temperature  
Mean Temperature 80 °F -  
Max Temperature 99 °F 102 °F 112 °F (1967)
Min Temperature 61 °F 67 °F 54 °F (1963)
Cooling Degree Days 15    
Growing Degree Days 30 (Base 50)    
Moisture  
Dew Point 40 °F    
Average Humidity 28    
Maximum Humidity 64    
Minimum Humidity 11    
Precipitation  
Precipitation 0.03 in - - ()
Sea Level Pressure  
Sea Level Pressure 30.11 in    
Wind  
Wind Speed 5 mph (SE)    
Max Wind Speed 22 mph    
Max Gust Speed 30 mph    
Visibility 10 miles    
Events Rain , Thunderstorm    
Averages and records for this station are not official NWS values.
T = Trace of Precipitation, MM = Missing Value Source: NWS Daily Summary

Daily Weather History Graph

Daily Weather History Graph

Search for Another Location

Airport or City:

Trip Planner

Search our weather history database for the weather conditions in past years. The results will help you decide how hot, cold, wet, or windy it might be!

Date:

Astronomy

Jul. 02, 2014 Rise Set
Actual Time 5:16 AM MST 7:55 PM MST
Civil Twilight 4:46 AM MST 8:26 PM MST
Nautical Twilight 4:07 AM MST 9:04 PM MST
Astronomical Twilight 3:25 AM MST 9:46 PM MST
Moon 10:16 AM MST (7/2) 10:58 PM MST (7/2)
Length of Visible Light 15h 40m
Length of Day
14h 38m
Waxing Crescent, 25% of the Moon is Illuminated
Jul 2
Waxing Crescent
Jul 5
First Quarter
Jul 12
Full
Jul 18
Last Quarter
Jul 26
New

Hourly Weather History & Observations

Time (MST) Temp. Dew Point Humidity Pressure Visibility Wind Dir Wind Speed Gust Speed Precip Events Conditions
12:15 AM 66.6 °F 33.6 °F 29% 30.08 in 10.0 mi Calm Calm - N/A   Clear
12:35 AM 65.5 °F 34.3 °F 31% 30.09 in 10.0 mi NNE 3.5 mph - N/A   Clear
12:55 AM 63.9 °F 36.1 °F 36% 30.09 in 10.0 mi East 5.8 mph - N/A   Clear
1:15 AM 63.0 °F 36.1 °F 37% 30.09 in 10.0 mi South 5.8 mph - N/A   Clear
1:35 AM 61.9 °F 31.6 °F 32% 30.09 in 10.0 mi South 3.5 mph - N/A   Clear
1:55 AM 62.6 °F 32.9 °F 33% 30.09 in 10.0 mi ENE 6.9 mph - N/A   Clear
2:15 AM 64.6 °F 37.2 °F 36% 30.08 in 10.0 mi Calm Calm - N/A   Clear
2:35 AM 64.2 °F 33.8 °F 32% 30.08 in 10.0 mi Calm Calm - N/A   Clear
2:55 AM 63.5 °F 32.7 °F 32% 30.08 in 10.0 mi SSE 4.6 mph - N/A   Clear
3:15 AM 63.0 °F 33.1 °F 33% 30.07 in 10.0 mi SE 5.8 mph - N/A   Clear
3:35 AM 63.5 °F 33.8 °F 33% 30.06 in 10.0 mi South 5.8 mph - N/A   Clear
3:55 AM 64.6 °F 34.2 °F 32% 30.06 in 10.0 mi SSE 4.6 mph - N/A   Clear
4:15 AM 64.6 °F 34.9 °F 33% 30.07 in 10.0 mi East 4.6 mph - N/A   Clear
4:35 AM 65.1 °F 36.1 °F 34% 30.07 in 10.0 mi SSE 6.9 mph - N/A   Clear
4:55 AM 65.5 °F 35.1 °F 32% 30.07 in 10.0 mi SSE 5.8 mph - N/A   Clear
5:15 AM 64.9 °F 34.7 °F 33% 30.08 in 10.0 mi SSE 4.6 mph - N/A   Clear
5:35 AM 62.4 °F 34.3 °F 35% 30.09 in 10.0 mi SSE 4.6 mph - N/A   Clear
5:55 AM 62.4 °F 35.6 °F 37% 30.09 in 10.0 mi ESE 4.6 mph - N/A   Clear
6:15 AM 63.9 °F 36.5 °F 36% 30.11 in 10.0 mi ESE 4.6 mph - N/A   Clear
6:35 AM 68.4 °F 36.9 °F 31% 30.11 in 10.0 mi SE 3.5 mph - N/A   Clear
6:55 AM 72.5 °F 36.7 °F 27% 30.12 in 10.0 mi Calm Calm - N/A   Clear
7:15 AM 74.1 °F 36.9 °F 26% 30.12 in 10.0 mi Calm Calm - N/A   Clear
7:35 AM 76.8 °F 37.6 °F 24% 30.12 in 10.0 mi Calm Calm - N/A   Clear
7:55 AM 79.7 °F 37.9 °F 22% 30.13 in 10.0 mi Calm Calm - N/A   Clear
8:15 AM 83.8 °F 38.3 °F 20% 30.13 in 10.0 mi ESE 3.5 mph - N/A   Clear
8:35 AM 86.2 °F 38.1 °F 18% 30.13 in 10.0 mi SE 3.5 mph - N/A   Clear
8:55 AM 88.2 °F 37.4 °F 17% 30.13 in 10.0 mi SE 3.5 mph - N/A   Clear
9:15 AM 88.5 °F 37.8 °F 17% 30.13 in 10.0 mi Calm Calm - N/A   Clear
9:35 AM 89.1 °F 37.9 °F 16% 30.13 in 10.0 mi NNW 4.6 mph - N/A   Clear
9:55 AM 91.0 °F 37.0 °F 15% 30.13 in 10.0 mi SE 3.5 mph - N/A   Clear
10:15 AM 92.5 °F 36.9 °F 14% 30.13 in 10.0 mi NW 12.7 mph 16.1 mph N/A   Clear
10:35 AM 93.2 °F 36.0 °F 13% 30.13 in 10.0 mi WNW 10.4 mph - N/A   Clear
10:55 AM 94.3 °F 35.2 °F 13% 30.13 in 10.0 mi West 6.9 mph - N/A   Clear
11:15 AM 94.6 °F 35.8 °F 13% 30.12 in 10.0 mi Calm Calm - N/A   Clear
11:35 AM 95.0 °F 35.2 °F 12% 30.12 in 10.0 mi NNW 4.6 mph - N/A   Clear
11:55 AM 95.2 °F 35.1 °F 12% 30.11 in 10.0 mi NW 8.1 mph - N/A   Clear
12:15 PM 96.6 °F 35.8 °F 12% 30.11 in 10.0 mi North 8.1 mph - N/A   Clear
12:35 PM 97.5 °F 35.4 °F 11% 30.09 in 10.0 mi NW 4.6 mph 16.1 mph N/A   Clear
12:55 PM 99.3 °F 36.5 °F 11% 30.09 in 10.0 mi SW 6.9 mph 25.3 mph N/A   Clear
1:15 PM 99.1 °F 36.3 °F 11% 30.08 in 10.0 mi WSW 10.4 mph - N/A   Clear
1:35 PM 98.4 °F 36.5 °F 12% 30.07 in 10.0 mi WNW 4.6 mph - N/A   Clear
1:55 PM 99.0 °F 36.3 °F 11% 30.07 in 10.0 mi NW 8.1 mph - N/A   Clear
2:15 PM 99.1 °F 36.3 °F 11% 30.07 in 10.0 mi WSW 8.1 mph - N/A   Scattered Clouds
2:35 PM 99.7 °F 36.1 °F 11% 30.06 in 10.0 mi NNW 6.9 mph 16.1 mph N/A   Scattered Clouds
3:55 PM 94.6 °F 38.1 °F 14% 30.09 in 10.0 mi ESE 21.9 mph 28.8 mph N/A   Clear
4:15 PM 90.1 °F 40.5 °F 18% 30.11 in 10.0 mi East 18.4 mph 28.8 mph N/A Thunderstorm Scattered Clouds
4:35 PM 88.0 °F 41.2 °F 19% 30.12 in 10.0 mi East 18.4 mph 29.9 mph N/A   Mostly Cloudy
4:55 PM 86.0 °F 41.7 °F 21% 30.13 in 10.0 mi ESE 17.3 mph 23.0 mph N/A Thunderstorm Overcast
5:15 PM 85.3 °F 41.7 °F 22% 30.13 in 10.0 mi ESE 17.3 mph 25.3 mph N/A Rain , Thunderstorm Light Thunderstorms and Rain
5:35 PM 83.5 °F 45.1 °F 26% 30.17 in 10.0 mi SSE 13.8 mph 21.9 mph N/A Rain , Thunderstorm Thunderstorms and Rain
5:55 PM 76.1 °F 53.6 °F 45% 30.13 in 10.0 mi ESE 21.9 mph - N/A Rain Light Rain
6:15 PM 75.6 °F 51.8 °F 43% 30.13 in 10.0 mi ESE 17.3 mph 25.3 mph 0.01 in Rain Light Rain
6:35 PM 78.1 °F 48.9 °F 36% 30.13 in 1.0 mi ESE 12.7 mph 19.6 mph 0.01 in Thunderstorm Unknown
6:55 PM 75.9 °F 52.3 °F 44% 30.13 in 10.0 mi East 8.1 mph - 0.02 in Rain Rain
7:15 PM 73.6 °F 54.5 °F 51% 30.15 in 10.0 mi North - - 0.01 in Rain Light Rain
7:35 PM 79.3 °F 48.0 °F 33% 30.14 in 10.0 mi North - - 0.01 in Rain Light Rain
7:55 PM 80.6 °F 46.6 °F 30% 30.16 in 10.0 mi North - - 0.01 in   Scattered Clouds
8:15 PM 78.8 °F 48.0 °F 34% 30.15 in 10.0 mi North - - N/A   Clear
8:35 PM 78.4 °F 46.8 °F 33% 30.14 in 10.0 mi North - - N/A   Clear
8:55 PM 78.1 °F 46.0 °F 32% 30.13 in 10.0 mi North - - N/A   Clear
9:15 PM 78.4 °F 45.1 °F 31% 30.13 in 10.0 mi North - - N/A   Clear
9:35 PM 78.4 °F 44.6 °F 30% 30.13 in 10.0 mi North - - N/A   Clear
9:55 PM 77.4 °F 45.0 °F 32% 30.14 in 10.0 mi North - - N/A   Clear
10:15 PM 77.7 °F 45.5 °F 32% 30.15 in 10.0 mi North - - N/A   Clear
10:35 PM 71.8 °F 52.7 °F 51% 30.15 in 10.0 mi North - - N/A   Clear
10:55 PM 68.9 °F 52.2 °F 55% 30.15 in 10.0 mi North - - N/A   Clear
11:15 PM 68.4 °F 52.0 °F 56% 30.14 in 10.0 mi North - - N/A   Clear
11:35 PM 64.9 °F 52.5 °F 64% 30.14 in 10.0 mi North - - N/A   Clear
11:55 PM 64.6 °F 52.2 °F 64% 30.13 in 10.0 mi North - - N/A   Clear